Starlink 31450

operational
NORAD ID: 59006 Int'l Des: 2024-036 Owner: SPXS Country: US Constellation: starlink
LEOCIRCULAR

Über Starlink 31450

Beschreibung wird geladen...

Live-Position

3D-Globus wird geladen...

Nächste Überflüge

Höhenverlauf

Altitude vs Time

uPlot chart will show altitude changes over time

Zweizeiliger Elementsatz

1 59006U 24036J 25303.31140575 -.00000624 00000-0 -89387-5 0 9998
2 59006 53.1610 323.5879 0001482 94.7697 265.3473 15.30186809 95366
Epoch: 30. Okt. 2025 • Age: 19 hours

Aktueller Status

Höhe 486.1 km
Geschwindigkeit 7.62 km/s
Subsatellitenpunkt -32.44°S, 139.45°W
Startdatum 23. Feb. 2024
Alter 1.6 years
Typ internet

Technische Details

Klassifizierung Payload
Masse 730.00 kg
Trockenmasse 700.00 kg
Gesamtmasse 730.00 kg
Länge 0.30 m
Durchmesser 4.10 m
Spannweite 29.00 m
Form Box + pan
Hersteller SPXS
Bus-Typ Starlink V2M
Phasenstatus In Orbit
Besitzer/Staat SPXS/US

Große Konstellationen

Loading constellations...